User: anonymous   Login
Location: Mascot Post Office (historical)
(40.2645°N, 99.5462°W)
Time: 18:50:18
(UTC+00:00)
Language:

Nadezhda 3 Rocket - Orbit

View from above orbital plane
View from above orbital plane
View from above satellite
View from above satellite

Ground track
Ground track

The orbit data is extracted from the following two-line orbital elements,

1 21153U 91019B   20263.50684624 +.00000076 +00000-0 +62172-4 0  9995
2 21153 082.9270 037.0083 0030356 065.8932 002.9732 13.75955018482082
Epoch (UTC): 19 September 2020 12:09:51
Eccentricity: 0.0030356
inclination: 82.9270°
perigee height: 956 km
apogee height: 1000 km
right ascension of ascending node: 37.0083°
argument of perigee: 65.8932°
revolutions per day: 13.75955018
mean anomaly at epoch: 2.9732°
orbit number at epoch: 48208

The dashed part of the orbit path shows where the satellite is in the earth's shadow,  

DLR